{"data":{"norad_id":64880,"epoch":"2026-09-19T21:55:28.814880Z","epoch_age_seconds":65017,"freshness":"FRESH","line1":"1 64880U 25155E   26262.91352795  .00008234  00000+0  26441-3 0  9999","line2":"2 64880  97.4667 232.2461 0006924 183.5692 176.5502 15.32536668 95276","mean_motion":15.32536668,"eccentricity":0.0006924,"inclination_deg":97.4667,"raan_deg":232.2461,"arg_perigee_deg":183.5692,"mean_anomaly_deg":176.5502,"bstar":0.00026441,"rev_number":9527,"period_min":93.961862712181,"perigee_km":463.50662986316,"apogee_km":472.98750251802,"semimajor_km":6846.3840661906,"source":"CELESTRAK","updated_at":"2026-09-20T09:00:45.266383Z"}}